Alyeska Resort
Hourly Weather - Mid Mountian Site
ALY_MID_HR 9/18/2014
CLICK TO VIEW GRAPH!!

        DATE  TIME   Air   H2o   H2o   New  Snow  BATT   Rel
                    Temp  Inch Since  Snow Depth  Volt  Hum%
                      F   1HR  0600   1HR         AVG   AVG

   9/18/2014 19:00    47  0.00  0.00  98.2  0.26 13.25    96
   9/18/2014 18:00    47  0.00  0.00  99.4  0.05 13.25    96
   9/18/2014 17:00    46  0.00  0.00  98.8  0.00 13.26    96
   9/18/2014 16:00    46  0.00  0.00  96.8  0.25 13.26    96
   9/18/2014 15:00    45  0.00  0.00  93.1  0.22 13.27    96
   9/18/2014 14:00    45  0.00  0.00  92.2  0.06 13.27    95
   9/18/2014 13:00    45  0.00  0.00  88.7  0.43 13.28    94
   9/18/2014 12:00    45  0.00  0.00  84.2  0.10 13.29    95
   9/18/2014 11:00    44  0.00  0.00  80.0  0.39 13.29    96
   9/18/2014 10:00    43  0.00  0.00  78.3  0.18 13.30    97
   9/18/2014 09:00    43  0.00  0.00  77.7  0.19 13.30    97
   9/18/2014 08:00    43  0.00  0.00  76.8  0.10 13.30    96
   9/18/2014 07:00    43  0.00  0.00  75.5  0.30 13.30    97
   9/18/2014 06:00    43  0.00  0.00  73.7  0.08 13.31    97
   9/18/2014 05:00    42  0.00  0.00  72.5  1.78 13.31    97
   9/18/2014 04:00    42  0.00  0.00  71.2  1.20 13.31    96
   9/18/2014 03:00    42  0.00  0.00  70.4  0.07 13.31    97
   9/18/2014 02:00    42  0.00  0.00  70.7  0.17 13.31    96
   9/18/2014 01:00    42  0.00  0.00  71.4  0.03 13.31    96
   9/17/2014 24:00    42  0.00  0.00  71.8  0.54 13.30    96
   9/17/2014 23:00    42  0.00  0.00  72.7  0.00 13.30    96
   9/17/2014 22:00    42  0.00  0.00  73.7  2.76 13.30    94
   9/17/2014 21:00    42  0.00  0.00  76.2  0.42 13.30    92
   9/17/2014 20:00    42  0.00  0.00  80.6  0.41 13.29    93


CLICK TO VIEW GRAPH!!